Weather History for Storm Lake, IA

Change the Weather History Date:

Wednesday, November 30, 2011

  Actual Average Record
Temperature  
Mean Temperature 32 °F -  
Max Temperature 46 °F 37 °F 50 °F (1998)
Min Temperature 17 °F 23 °F 8 °F (2006)
Degree Days  
Heating Degree Days 34    
Moisture  
Dew Point 11 °F    
Average Humidity 41    
Maximum Humidity 52    
Minimum Humidity 30    
Precipitation  
Precipitation 0.00 in - - ()
Sea Level Pressure  
Sea Level Pressure 29.96 in    
Wind  
Wind Speed 12 mph (SSW)    
Max Wind Speed 23 mph    
Max Gust Speed 31 mph    
Visibility 10 miles    
Events      
Averages and records for this station are not official NWS values.
T = Trace of Precipitation, MM = Missing Value Source: NWS Daily Summary

Daily Weather History Graph

Daily Weather History Graph

Search for Another Location

Airport:

Trip Planner

Search our weather history database for the weather conditions in past years. The results will help you decide how hot, cold, wet, or windy it might be!

Date:

Astronomy

Nov. 30, 2011 Rise Set
Actual Time 7:29 AM CST 4:49 PM CST
Civil Twilight 6:58 AM CST 5:20 PM CST
Nautical Twilight 6:23 AM CST 5:55 PM CST
Astronomical Twilight 5:49 AM CST 6:29 PM CST
Moon 11:44 AM CST (11/30) 10:51 PM CST (11/30)
Length of Visible Light 10h 21m
Length of Day
9h 19m
Waxing Crescent, 34% of the Moon is Illuminated
Nov 30
Waxing Crescent
Dec 2
First Quarter
Dec 10
Full
Dec 17
Last Quarter
Dec 24
New

Hourly Weather History & Observations

Time (CST) Temp. Windchill Dew Point Humidity Pressure Visibility Wind Dir Wind Speed Gust Speed Precip Events Conditions
12:15 AM 17.4 °F 7.1 °F 2.3 °F 52% 30.14 in 10.0 mi SSW 8.1 mph - N/A   Clear
12:35 AM 18.0 °F 6.9 °F 2.3 °F 50% 30.12 in 10.0 mi SSW 9.2 mph - N/A   Clear
12:40 AM 17.6 °F 6.4 °F 1.4 °F 49% 30.12 in 10.0 mi SSW 9.2 mph - N/A   Clear
12:55 AM 18.0 °F 6.1 °F 2.1 °F 50% 30.11 in 10.0 mi SSW 10.4 mph - N/A   Clear
1:15 AM 19.2 °F 8.4 °F 2.8 °F 49% 30.10 in 10.0 mi SSW 9.2 mph - N/A   Clear
1:35 AM 19.2 °F 7.7 °F 2.8 °F 49% 30.09 in 10.0 mi SSW 10.4 mph - N/A   Clear
2:02 AM 21.2 °F 11.7 °F 3.2 °F 46% 30.08 in 10.0 mi South 8.1 mph - N/A   Clear
2:19 AM 19.4 °F 9.5 °F 3.2 °F 49% 30.08 in 10.0 mi SSW 8.1 mph - N/A   Clear
2:55 AM 19.9 °F 10.1 °F 3.7 °F 50% 30.07 in 10.0 mi SW 8.1 mph - N/A   Clear
3:15 AM 19.6 °F 8.9 °F 4.1 °F 51% 30.07 in 10.0 mi SW 9.2 mph - N/A   Clear
3:35 AM 20.5 °F 10.0 °F 4.8 °F 51% 30.06 in 10.0 mi SSW 9.2 mph - N/A   Clear
3:55 AM 20.8 °F 9.7 °F 5.2 °F 51% 30.04 in 10.0 mi SSW 10.4 mph - N/A   Clear
4:15 AM 21.6 °F 9.9 °F 5.7 °F 51% 30.04 in 10.0 mi SSW 11.5 mph - N/A   Clear
4:35 AM 23.2 °F 10.8 °F 6.4 °F 49% 30.02 in 10.0 mi SSW 13.8 mph - N/A   Clear
5:15 AM 25.7 °F 14.6 °F 6.4 °F 44% 30.02 in 10.0 mi SSW 12.7 mph - N/A   Clear
5:35 AM 24.6 °F 13.8 °F 6.6 °F 46% 30.01 in 10.0 mi SSW 11.5 mph - N/A   Clear
5:55 AM 25.3 °F 14.7 °F 6.8 °F 45% 30.01 in 10.0 mi SSW 11.5 mph - N/A   Clear
6:15 AM 26.6 °F 15.7 °F 7.2 °F 44% 30.01 in 10.0 mi SSW 12.7 mph - N/A   Clear
6:35 AM 27.3 °F 16.1 °F 7.7 °F 44% 30.00 in 10.0 mi SSW 13.8 mph - N/A   Clear
6:55 AM 27.5 °F 16.3 °F 7.7 °F 43% 30.00 in 10.0 mi SSW 13.8 mph - N/A   Clear
7:15 AM 28.4 °F 18.0 °F 7.7 °F 42% 29.99 in 10.0 mi SSW 12.7 mph - N/A   Clear
7:35 AM 29.7 °F 18.6 °F 7.2 °F 39% 29.99 in 10.0 mi SSW 15.0 mph - N/A   Clear
7:55 AM 30.7 °F 19.6 °F 7.0 °F 37% 29.98 in 10.0 mi SSW 16.1 mph - N/A   Clear
8:15 AM 31.3 °F 21.1 °F 7.5 °F 37% 29.97 in 10.0 mi South 13.8 mph - N/A   Clear
8:35 AM 31.1 °F 22.4 °F 8.1 °F 38% 29.98 in 10.0 mi South 10.4 mph 17.3 mph N/A   Clear
8:55 AM 32.0 °F 22.1 °F 8.4 °F 37% 29.97 in 10.0 mi SSW 13.8 mph - N/A   Clear
10:15 AM 39.0 °F 28.5 °F 10.8 °F 31% 29.96 in 10.0 mi SSW 23.0 mph 31.1 mph N/A   Clear
10:35 AM 38.1 °F 28.1 °F 10.8 °F 32% 29.95 in 10.0 mi SSW 19.6 mph 24.2 mph N/A   Clear
10:55 AM 39.7 °F 29.7 °F 11.8 °F 32% 29.94 in 10.0 mi SSW 21.9 mph 28.8 mph N/A   Clear
11:35 AM 41.7 °F 32.6 °F 13.6 °F 32% 29.92 in 10.0 mi SSW 20.7 mph 27.6 mph N/A   Clear
11:55 AM 41.9 °F 32.8 °F 14.4 °F 33% 29.90 in 10.0 mi SSW 20.7 mph 24.2 mph N/A   Clear
12:15 PM 42.6 °F 33.5 °F 14.4 °F 32% 29.90 in 10.0 mi SSW 21.9 mph 26.5 mph N/A   Clear
12:35 PM 43.0 °F 34.2 °F 14.4 °F 31% 29.89 in 10.0 mi SSW 20.7 mph 25.3 mph N/A   Clear
12:55 PM 43.3 °F 35.2 °F 14.9 °F 32% 29.88 in 10.0 mi SSW 18.4 mph - N/A   Clear
1:15 PM 45.0 °F 37.1 °F 16.2 °F 32% 29.87 in 10.0 mi SSW 19.6 mph 27.6 mph N/A   Clear
1:35 PM 46.0 °F 38.5 °F 16.7 °F 31% 29.87 in 10.0 mi SW 19.6 mph 26.5 mph N/A   Clear
2:15 PM 45.5 °F 38.1 °F 15.8 °F 30% 29.86 in 10.0 mi South 18.4 mph - N/A   Clear
2:35 PM 45.5 °F 38.3 °F 16.2 °F 31% 29.85 in 10.0 mi SSW 17.3 mph - N/A   Clear
2:55 PM 45.7 °F 38.0 °F 16.3 °F 31% 29.85 in 10.0 mi SSW 19.6 mph 24.2 mph N/A   Clear
3:15 PM 45.5 °F 37.8 °F 16.3 °F 31% 29.86 in 10.0 mi SSW 19.6 mph 24.2 mph N/A   Clear
3:35 PM 45.0 °F 37.6 °F 16.3 °F 32% 29.86 in 10.0 mi SSW 17.3 mph - N/A   Clear
3:55 PM 44.4 °F 37.5 °F 16.3 °F 32% 29.85 in 10.0 mi South 15.0 mph - N/A   Clear
4:15 PM 43.9 °F 37.5 °F 16.3 °F 33% 29.87 in 10.0 mi SSW 12.7 mph - N/A   Clear
4:35 PM 43.2 °F 37.9 °F 16.5 °F 34% 29.87 in 10.0 mi South 9.2 mph - N/A   Clear
4:55 PM 42.1 °F 36.6 °F 16.5 °F 36% 29.87 in 10.0 mi South 9.2 mph - N/A   Clear
5:15 PM 40.5 °F 34.1 °F 16.5 °F 38% 29.87 in 10.0 mi South 10.4 mph - N/A   Clear
5:35 PM 39.4 °F 33.2 °F 16.5 °F 40% 29.88 in 10.0 mi South 9.2 mph - N/A   Clear
5:55 PM 37.9 °F 32.1 °F 16.5 °F 42% 29.88 in 10.0 mi South 8.1 mph - N/A   Clear
6:15 PM 37.8 °F 31.3 °F 16.7 °F 42% 29.89 in 10.0 mi SSE 9.2 mph - N/A   Clear
6:35 PM 37.6 °F 31.0 °F 16.7 °F 43% 29.89 in 10.0 mi SSE 9.2 mph - N/A   Clear
6:55 PM 37.0 °F 31.0 °F 16.9 °F 44% 29.90 in 10.0 mi South 8.1 mph - N/A   Clear
7:15 PM 36.3 °F 28.9 °F 16.9 °F 45% 29.90 in 10.0 mi South 10.4 mph - N/A   Clear
7:35 PM 35.2 °F 28.8 °F 16.7 °F 47% 29.91 in 10.0 mi South 8.1 mph - N/A   Clear
7:55 PM 34.2 °F 31.2 °F 16.5 °F 49% 29.93 in 10.0 mi SSE 3.5 mph - N/A   Clear
8:15 PM 32.5 °F 29.3 °F 16.0 °F 51% 29.94 in 10.0 mi NE 3.5 mph - N/A   Clear
8:35 PM 31.8 °F 28.5 °F 16.2 °F 52% 29.95 in 10.0 mi East 3.5 mph - N/A   Clear
9:15 PM 31.8 °F 25.4 °F 16.0 °F 52% 29.96 in 10.0 mi SE 6.9 mph - N/A   Clear
9:35 PM 30.6 °F 23.8 °F 15.6 °F 54% 29.97 in 10.0 mi SE 6.9 mph - N/A   Clear
9:55 PM 30.7 °F 23.3 °F 16.3 °F 55% 29.97 in 10.0 mi SSE 8.1 mph - N/A   Clear
10:15 PM 31.1 °F 23.7 °F 16.7 °F 55% 29.98 in 10.0 mi SSE 8.1 mph - N/A   Clear
10:35 PM 31.8 °F 25.4 °F 17.1 °F 55% 29.99 in 10.0 mi SSE 6.9 mph - N/A   Clear
10:55 PM 32.0 °F 25.6 °F 17.2 °F 55% 29.99 in 10.0 mi SE 6.9 mph - N/A   Clear
11:15 PM 32.0 °F 25.6 °F 17.4 °F 55% 29.99 in 10.0 mi SSE 6.9 mph - N/A   Clear
11:35 PM 32.0 °F 26.4 °F 17.4 °F 55% 30.01 in 10.0 mi SE 5.8 mph - N/A   Clear
11:55 PM 31.3 °F 26.6 °F 17.2 °F 56% 30.02 in 10.0 mi SE 4.6 mph - N/A   Clear